Time,TemperatureF,DewpointF,PressureIn,WindDirection,WindDirectionDegrees,WindSpeedMPH,WindSpeedGustMPH,Humidity,HourlyPrecipIn,Conditions,Clouds,dailyrainin,SoftwareType,DateUTC
2013-01-15 00:00:00,43.3,34.0,29.84,NNW,341,10.0,-999.0,69,-99.99,,,0.05,weatherlink.com 1.10,2013-01-15 00:00:00,
2013-01-15 00:15:00,43.5,35.0,29.83,NNW,346,15.0,-999.0,71,-99.99,,,0.05,weatherlink.com 1.10,2013-01-15 00:15:00,
2013-01-15 00:30:00,43.3,34.0,29.83,NNW,337,17.0,-999.0,70,-99.99,,,0.05,weatherlink.com 1.10,2013-01-15 00:30:00,
2013-01-15 00:45:00,43.4,35.0,29.83,NNW,337,10.0,-999.0,71,-99.99,,,0.05,weatherlink.com 1.10,2013-01-15 00:45:00,
2013-01-15 01:00:00,43.7,34.0,29.83,North,360,15.0,-999.0,70,-99.99,,,0.05,weatherlink.com 1.10,2013-01-15 01:00:00,
2013-01-15 01:15:00,43.8,35.0,29.84,North,360,21.0,-999.0,72,-99.99,,,0.05,weatherlink.com 1.10,2013-01-15 01:15:00,
2013-01-15 01:30:00,43.9,35.0,29.83,North,11,18.0,-999.0,72,-99.99,,,0.05,weatherlink.com 1.10,2013-01-15 01:30:00,
2013-01-15 01:45:00,44.1,36.0,29.83,NNW,327,19.0,-999.0,72,-99.99,,,0.05,weatherlink.com 1.10,2013-01-15 01:45:00,
2013-01-15 02:00:00,43.7,36.0,29.84,NNW,331,10.0,-999.0,73,-99.99,,,0.05,weatherlink.com 1.10,2013-01-15 02:00:00,
2013-01-15 02:15:00,42.6,36.0,29.84,NW,315,13.0,-999.0,76,-99.99,,,0.05,weatherlink.com 1.10,2013-01-15 02:15:00,
2013-01-15 02:30:00,42.9,36.0,29.84,North,355,11.0,-999.0,75,-99.99,,,0.06,weatherlink.com 1.10,2013-01-15 02:30:00,
2013-01-15 02:45:00,43.2,35.0,29.84,NNW,327,18.0,-999.0,74,-99.99,,,0.06,weatherlink.com 1.10,2013-01-15 02:45:00,
2013-01-15 03:00:00,42.9,34.0,29.84,NNW,342,9.0,-999.0,72,-99.99,,,0.06,weatherlink.com 1.10,2013-01-15 03:00:00,
2013-01-15 03:14:00,42.8,34.0,29.85,North,355,9.0,-999.0,72,-99.99,,,0.06,weatherlink.com 1.10,2013-01-15 03:14:00,
2013-01-15 03:30:00,42.7,35.0,29.85,North,355,17.0,-999.0,73,-99.99,,,0.06,weatherlink.com 1.10,2013-01-15 03:30:00,
2013-01-15 03:45:00,42.5,34.0,29.85,North,360,18.0,-999.0,71,-99.99,,,0.06,weatherlink.com 1.10,2013-01-15 03:45:00,
2013-01-15 04:00:00,42.4,34.0,29.85,NW,322,16.0,-999.0,73,-99.99,,,0.06,weatherlink.com 1.10,2013-01-15 04:00:00,
2013-01-15 04:15:00,42.3,34.0,29.85,NNW,334,15.0,-999.0,73,-99.99,,,0.06,weatherlink.com 1.10,2013-01-15 04:15:00,
2013-01-15 04:30:00,42.1,34.0,29.85,NNW,347,10.0,-999.0,73,-99.99,,,0.06,weatherlink.com 1.10,2013-01-15 04:30:00,
2013-01-15 04:45:00,41.9,34.0,29.85,North,360,10.0,-999.0,73,-99.99,,,0.06,weatherlink.com 1.10,2013-01-15 04:45:00,
2013-01-15 05:00:00,41.8,33.0,29.86,NNW,342,10.0,-999.0,72,-99.99,,,0.06,weatherlink.com 1.10,2013-01-15 05:00:00,
2013-01-15 05:15:00,41.8,34.0,29.86,NNW,336,7.0,-999.0,73,-99.99,,,0.06,weatherlink.com 1.10,2013-01-15 05:15:00,
2013-01-15 05:30:00,41.9,34.0,29.86,NNW,338,11.0,-999.0,73,-99.99,,,0.06,weatherlink.com 1.10,2013-01-15 05:30:00,
2013-01-15 05:45:00,41.6,34.0,29.86,North,355,9.0,-999.0,73,-99.99,,,0.06,weatherlink.com 1.10,2013-01-15 05:45:00,
2013-01-15 06:00:00,41.5,33.0,29.86,NNW,348,10.0,-999.0,73,-99.99,,,0.06,weatherlink.com 1.10,2013-01-15 06:00:00,
2013-01-15 06:15:00,41.5,33.0,29.86,North,351,9.0,-999.0,73,-99.99,,,0.06,weatherlink.com 1.10,2013-01-15 06:15:00,
2013-01-15 06:30:00,41.9,34.0,29.87,North,360,9.0,-999.0,73,-99.99,,,0.06,weatherlink.com 1.10,2013-01-15 06:30:00,
2013-01-15 06:45:00,41.8,34.0,29.87,NNW,342,10.0,-999.0,74,-99.99,,,0.06,weatherlink.com 1.10,2013-01-15 06:45:00,
2013-01-15 07:00:00,41.6,34.0,29.87,NNW,346,4.0,-999.0,74,-99.99,,,0.06,weatherlink.com 1.10,2013-01-15 07:00:00,
2013-01-15 07:14:00,41.9,34.0,29.88,NNW,346,10.0,-999.0,73,-99.99,,,0.06,weatherlink.com 1.10,2013-01-15 07:14:00,
2013-01-15 07:30:00,42.2,35.0,29.88,NNW,335,5.0,-999.0,75,-99.99,,,0.06,weatherlink.com 1.10,2013-01-15 07:30:00,
2013-01-15 07:45:00,42.3,35.0,29.88,NNW,344,7.0,-999.0,74,-99.99,,,0.06,weatherlink.com 1.10,2013-01-15 07:45:00,
2013-01-15 08:00:00,42.3,35.0,29.89,NNW,348,7.0,-999.0,74,-99.99,,,0.06,weatherlink.com 1.10,2013-01-15 08:00:00,
2013-01-15 08:15:00,42.3,35.0,29.89,NNW,338,6.0,-999.0,74,-99.99,,,0.06,weatherlink.com 1.10,2013-01-15 08:15:00,
2013-01-15 08:30:00,42.4,35.0,29.89,NNW,347,10.0,-999.0,74,-99.99,,,0.06,weatherlink.com 1.10,2013-01-15 08:30:00,
2013-01-15 08:45:00,42.3,35.0,29.90,North,351,6.0,-999.0,74,-99.99,,,0.06,weatherlink.com 1.10,2013-01-15 08:45:00,
2013-01-15 09:00:00,42.4,35.0,29.90,NNW,336,5.0,-999.0,74,-99.99,,,0.06,weatherlink.com 1.10,2013-01-15 09:00:00,
2013-01-15 09:15:00,42.8,35.0,29.91,North,349,11.0,-999.0,74,-99.99,,,0.06,weatherlink.com 1.10,2013-01-15 09:15:00,
2013-01-15 09:30:00,43.3,36.0,29.91,NNW,335,6.0,-999.0,74,-99.99,,,0.06,weatherlink.com 1.10,2013-01-15 09:30:00,
2013-01-15 09:45:00,43.7,36.0,29.90,NNW,327,7.0,-999.0,74,-99.99,,,0.06,weatherlink.com 1.10,2013-01-15 09:45:00,
2013-01-15 10:00:00,43.9,36.0,29.91,NNW,335,7.0,-999.0,74,-99.99,,,0.06,weatherlink.com 1.10,2013-01-15 10:00:00,
2013-01-15 10:15:00,44.3,36.0,29.91,NNW,334,9.0,-999.0,73,-99.99,,,0.06,weatherlink.com 1.10,2013-01-15 10:15:00,
2013-01-15 10:30:00,44.5,37.0,29.91,NNW,342,8.0,-999.0,74,-99.99,,,0.06,weatherlink.com 1.10,2013-01-15 10:30:00,
2013-01-15 10:45:00,44.8,37.0,29.91,NNW,348,4.0,-999.0,74,-99.99,,,0.06,weatherlink.com 1.10,2013-01-15 10:45:00,
2013-01-15 11:00:00,44.9,37.0,29.91,NNW,344,11.0,-999.0,73,-99.99,,,0.06,weatherlink.com 1.10,2013-01-15 11:00:00,
2013-01-15 11:14:00,44.7,37.0,29.90,NW,323,9.0,-999.0,73,-99.99,,,0.06,weatherlink.com 1.10,2013-01-15 11:14:00,
2013-01-15 11:30:00,45.0,37.0,29.90,North,355,5.0,-999.0,73,-99.99,,,0.06,weatherlink.com 1.10,2013-01-15 11:30:00,
2013-01-15 11:45:00,44.9,37.0,29.90,NNW,327,7.0,-999.0,73,-99.99,,,0.06,weatherlink.com 1.10,2013-01-15 11:45:00,
2013-01-15 12:00:00,45.1,37.0,29.90,NNW,338,11.0,-999.0,73,-99.99,,,0.06,weatherlink.com 1.10,2013-01-15 12:00:00,
2013-01-15 12:15:00,45.3,36.0,29.89,NNW,334,10.0,-999.0,71,-99.99,,,0.06,weatherlink.com 1.10,2013-01-15 12:15:00,
2013-01-15 12:30:00,45.7,37.0,29.89,NNW,336,11.0,-999.0,72,-99.99,,,0.06,weatherlink.com 1.10,2013-01-15 12:30:00,
2013-01-15 12:45:00,45.8,38.0,29.88,NW,319,8.0,-999.0,73,-99.99,,,0.06,weatherlink.com 1.10,2013-01-15 12:45:00,
2013-01-15 13:00:00,45.6,38.0,29.88,NNW,346,2.0,-999.0,74,-99.99,,,0.06,weatherlink.com 1.10,2013-01-15 13:00:00,
2013-01-15 13:15:00,45.9,38.0,29.87,NW,317,7.0,-999.0,73,-99.99,,,0.06,weatherlink.com 1.10,2013-01-15 13:15:00,
2013-01-15 13:30:00,45.7,37.0,29.87,NW,325,9.0,-999.0,73,-99.99,,,0.06,weatherlink.com 1.10,2013-01-15 13:30:00,
2013-01-15 13:45:00,45.8,37.0,29.86,NNW,348,10.0,-999.0,70,-99.99,,,0.06,weatherlink.com 1.10,2013-01-15 13:45:00,
2013-01-15 14:00:00,45.5,37.0,29.87,NNW,328,10.0,-999.0,71,-99.99,,,0.06,weatherlink.com 1.10,2013-01-15 14:00:00,
2013-01-15 14:15:00,45.4,37.0,29.87,NW,326,9.0,-999.0,72,-99.99,,,0.06,weatherlink.com 1.10,2013-01-15 14:15:00,
2013-01-15 14:30:00,45.2,37.0,29.86,NW,322,3.0,-999.0,73,-99.99,,,0.06,weatherlink.com 1.10,2013-01-15 14:30:00,
2013-01-15 14:45:00,45.0,37.0,29.86,NNW,329,9.0,-999.0,73,-99.99,,,0.06,weatherlink.com 1.10,2013-01-15 14:45:00,
2013-01-15 15:00:00,44.9,37.0,29.86,NNW,332,3.0,-999.0,73,-99.99,,,0.06,weatherlink.com 1.10,2013-01-15 15:00:00,
2013-01-15 15:14:00,44.6,36.0,29.85,NW,324,2.0,-999.0,73,-99.99,,,0.06,weatherlink.com 1.10,2013-01-15 15:14:00,
2013-01-15 15:30:00,44.3,36.0,29.86,NW,324,3.0,-999.0,73,-99.99,,,0.06,weatherlink.com 1.10,2013-01-15 15:30:00,
2013-01-15 15:45:00,44.0,36.0,29.85,NW,324,3.0,-999.0,73,-99.99,,,0.06,weatherlink.com 1.10,2013-01-15 15:45:00,
2013-01-15 16:00:00,43.8,36.0,29.85,NW,324,5.0,-999.0,73,-99.99,,,0.06,weatherlink.com 1.10,2013-01-15 16:00:00,
2013-01-15 16:15:00,43.5,36.0,29.85,NW,324,2.0,-999.0,74,-99.99,,,0.00,weatherlink.com 1.10,2013-01-15 16:15:00,
2013-01-15 16:30:00,43.1,36.0,29.85,NW,324,3.0,-999.0,75,-99.99,,,0.00,weatherlink.com 1.10,2013-01-15 16:30:00,
2013-01-15 16:45:00,42.8,35.0,29.84,NW,324,4.0,-999.0,75,-99.99,,,0.00,weatherlink.com 1.10,2013-01-15 16:45:00,
2013-01-15 17:00:00,42.3,35.0,29.84,NW,324,1.0,-999.0,76,-99.99,,,0.00,weatherlink.com 1.10,2013-01-15 17:00:00,
2013-01-15 17:15:00,42.1,35.0,29.83,NW,324,2.0,-999.0,76,-99.99,,,0.00,weatherlink.com 1.10,2013-01-15 17:15:00,
2013-01-15 17:30:00,41.9,35.0,29.83,NW,324,3.0,-999.0,76,-99.99,,,0.00,weatherlink.com 1.10,2013-01-15 17:30:00,
2013-01-15 17:48:00,41.7,35.0,29.83,NW,324,0.0,-999.0,77,-99.99,,,0.00,weatherlink.com 1.10,2013-01-15 17:48:00,
2013-01-15 18:15:00,41.3,-99.9,29.82,NW,324,2.0,-999.0,-999,-99.99,,,0.00,weatherlink.com 1.10,2013-01-15 18:15:00,
2013-01-15 18:29:00,41.3,35.0,29.81,NW,324,1.0,-999.0,77,-99.99,,,0.00,weatherlink.com 1.10,2013-01-15 18:29:00,
2013-01-15 18:44:00,41.5,35.0,29.81,NW,324,0.0,-999.0,77,-99.99,,,0.00,weatherlink.com 1.10,2013-01-15 18:44:00,
2013-01-15 18:59:00,41.3,35.0,29.80,NW,324,0.0,-999.0,77,-99.99,,,0.00,weatherlink.com 1.10,2013-01-15 18:59:00,
2013-01-15 19:14:00,41.1,35.0,29.79,NW,324,0.0,-999.0,78,-99.99,,,0.00,weatherlink.com 1.10,2013-01-15 19:14:00,
2013-01-15 19:29:00,41.2,35.0,29.79,NW,324,0.0,-999.0,78,-99.99,,,0.00,weatherlink.com 1.10,2013-01-15 19:29:00,
2013-01-15 19:44:00,41.4,35.0,29.78,NW,324,0.0,-999.0,78,-99.99,,,0.00,weatherlink.com 1.10,2013-01-15 19:44:00,
2013-01-15 19:59:00,41.5,35.0,29.78,NW,324,0.0,-999.0,78,-99.99,,,0.00,weatherlink.com 1.10,2013-01-15 19:59:00,
2013-01-15 20:14:00,41.6,36.0,29.77,NW,324,0.0,-999.0,79,-99.99,,,0.00,weatherlink.com 1.10,2013-01-15 20:14:00,
2013-01-15 20:29:00,41.9,36.0,29.76,NW,324,0.0,-999.0,79,-99.99,,,0.00,weatherlink.com 1.10,2013-01-15 20:29:00,
2013-01-15 20:44:00,42.0,36.0,29.75,NW,324,1.0,-999.0,79,-99.99,,,0.00,weatherlink.com 1.10,2013-01-15 20:44:00,
2013-01-15 20:59:00,42.4,36.0,29.75,NW,324,0.0,-999.0,78,-99.99,,,0.00,weatherlink.com 1.10,2013-01-15 20:59:00,
2013-01-15 21:14:00,43.3,37.0,29.74,NW,319,3.0,-999.0,77,-99.99,,,0.00,weatherlink.com 1.10,2013-01-15 21:14:00,
2013-01-15 21:29:00,43.9,36.0,29.73,SE,133,5.0,-999.0,75,-99.99,,,0.00,weatherlink.com 1.10,2013-01-15 21:29:00,
2013-01-15 21:44:00,44.0,37.0,29.72,SE,136,4.0,-999.0,75,-99.99,,,0.00,weatherlink.com 1.10,2013-01-15 21:44:00,
2013-01-15 21:59:00,43.8,36.0,29.71,SE,139,5.0,-999.0,75,-99.99,,,0.00,weatherlink.com 1.10,2013-01-15 21:59:00,
2013-01-15 22:14:00,43.3,36.0,29.71,SE,134,6.0,-999.0,76,-99.99,,,0.00,weatherlink.com 1.10,2013-01-15 22:14:00,
2013-01-15 22:29:00,43.0,37.0,29.70,SSE,149,6.0,-999.0,78,-99.99,,,0.01,weatherlink.com 1.10,2013-01-15 22:29:00,
2013-01-15 22:44:00,43.0,37.0,29.70,SE,130,5.0,-999.0,78,-99.99,,,0.01,weatherlink.com 1.10,2013-01-15 22:44:00,
2013-01-15 22:59:00,42.6,37.0,29.70,ESE,123,10.0,-999.0,79,-99.99,,,0.01,weatherlink.com 1.10,2013-01-15 22:59:00,
2013-01-15 23:14:00,42.7,36.0,29.69,SE,134,7.0,-999.0,78,-99.99,,,0.01,weatherlink.com 1.10,2013-01-15 23:14:00,
2013-01-15 23:29:00,42.7,36.0,29.69,SE,140,6.0,-999.0,78,-99.99,,,0.02,weatherlink.com 1.10,2013-01-15 23:29:00,
2013-01-15 23:44:00,42.9,37.0,29.68,SE,144,10.0,-999.0,79,-99.99,,,0.02,weatherlink.com 1.10,2013-01-15 23:44:00,
2013-01-15 23:59:00,42.9,37.0,29.68,ESE,117,9.0,-999.0,79,-99.99,,,0.02,weatherlink.com 1.10,2013-01-15 23:59:00,